Location: ????????
(41.2031°N, 22.5756°E)
Time: 06:17:03
(UTC+00:00)

COSMO-SKYMED 1 - Pass Details

Date: 01 December 2020
Orbit: 621 x 623 km, 97.9° (Epoch: 20 January)

Event Time Altitude Azimuth Distance (km) Brightness Sun altitude
Exits shadow 15:46:17 - 33° (NNE) 2,390 5.1 -8.4°
Reaches altitude 10° 15:47:25 10° 40° (NE) 2,000 4.6 -8.6°
Maximum altitude 15:50:57 24° 95° (E) 1,302 3.7 -9.3°
Drops below altitude 10° 15:54:27 10° 149° (SSE) 1,987 5.1 -9.9°
Sets 15:56:58 0° 163° (SSE) 2,887 6.0 -10.3°
